Location: Passau
(48.5830°N, 13.4830°E)
Time: 19:57:23
(UTC+02:00)

S-56A Canister/Altair - Pass Details

Date: 23 May 2024
Orbit: 637 x 2489 km, 38.9° (Epoch: 15 June)

Event Time Altitude Azimuth Distance (km) Brightness Sun altitude
Rises 04:32:36 0° 186° (S) 6,094 11.7 -6.5°
Reaches altitude 10° 04:39:29 10° 166° (SSE) 4,891 11.4 -5.6°
Maximum altitude 04:45:32 14° 140° (SE) 4,253 11.3 -4.9°
Drops below altitude 10° 04:50:56 10° 112° (ESE) 4,284 11.8 -4.2°
Sets 04:56:06 0° 90° (E) 4,898 12.6 -3.5°
